User: anonymous   Login
Location: ?ejeti?ky
(50.4060°N, 14.9016°E)
Time: 12:15:52
(UTC+00:00)
Language:

Cosmos 1842 Rocket - Orbit

View from above orbital plane
View from above orbital plane
View from above satellite
View from above satellite

Ground track
Ground track

The orbit data is extracted from the following two-line orbital elements,

1 17912U 87038B   20226.88059405 +.00000060 +00000-0 +43722-5 0  9996
2 17912 082.5004 047.8043 0021094 034.9500 325.3095 14.83044334777635
Epoch (UTC): 13 August 2020 21:08:03
Eccentricity: 0.0021094
inclination: 82.5004°
perigee height: 605 km
apogee height: 634 km
right ascension of ascending node: 47.8043°
argument of perigee: 34.9500°
revolutions per day: 14.83044334
mean anomaly at epoch: 325.3095°
orbit number at epoch: 77763

The dashed part of the orbit path shows where the satellite is in the earth's shadow,  

DLR